QPF
0.00 0.00 0.00 0.00 0.00 0.01 0.04 0.03 0.01 0.00 0.01 0.00 0.00 0.00 0.00 0.02 0.05 0.08 0.04 0.01 0.00 0.01 0.01 0.00 0.00 0.01 0.01 0.02 0.02 0.03 0.05 0.07 0.08 0.05 0.03 0.03 0.02 0.01 0.01 0.01 0.01 0.02 0.02 0.03 0.03 0.04 0.04 0.04 0.04
0.00 0.00 0.00 0.00 0.01 0.02 0.03 0.02 0.02 0.01 0.00 0.00 0.00 0.00 0.00 0.00 0.01 0.03 0.02 0.01 0.00 0.01 0.02 0.02 0.01 0.01 0.01 0.02 0.02 0.03 0.04 0.07 0.11 0.06 0.03 0.04 0.03 0.03 0.02 0.02 0.01 0.02 0.03 0.03 0.03 0.04 0.05 0.06 0.06
0.00 0.00 0.00 0.00 0.02 0.03 0.02 0.01 0.01 0.00 0.00 0.00 0.00 0.00 0.00 0.01 0.05 0.05 0.02 0.01 0.00 0.01 0.02 0.02 0.02 0.02 0.02 0.03 0.03 0.03 0.03 0.06 0.10 0.06 0.03 0.03 0.03 0.03 0.03 0.02 0.02 0.02 0.03 0.03 0.04 0.04 0.05 0.06 0.06
0.00 0.00 0.00 0.00 0.02 0.01 0.01 0.01 0.00 0.00 0.00 0.00 0.00 0.00 0.01 0.01 0.04 0.04 0.02 0.02 0.01 0.01 0.01 0.01 0.01 0.00 0.01 0.02 0.03 0.04 0.04 0.06 0.09 0.05 0.04 0.03 0.03 0.03 0.03 0.03 0.02 0.02 0.03 0.03 0.04 0.04 0.05 0.06 0.07
0.00 0.00 0.00 0.01 0.01 0.00 0.00 0.00 0.00 0.00 0.00 0.00 0.01 0.01 0.03 0.03 0.03 0.03 0.02 0.01 0.00 0.00 0.00 0.00 0.00 0.00 0.01 0.03 0.03 0.04 0.05 0.08 0.08 0.06 0.05 0.04 0.04 0.04 0.04 0.03 0.03 0.02 0.02 0.03 0.04 0.04 0.04 0.06 0.07
0.00 0.00 0.01 0.02 0.01 0.01 0.01 0.01 0.01 0.01 0.00 0.00 0.01 0.02 0.06 0.05 0.07 0.07 0.02 0.01 0.00 0.00 0.00 0.00 0.00 0.00 0.02 0.03 0.02 0.04 0.05 0.08 0.08 0.06 0.05 0.05 0.05 0.04 0.03 0.03 0.03 0.02 0.02 0.03 0.03 0.03 0.03 0.04 0.07
0.00 0.01 0.02 0.02 0.03 0.03 0.02 0.01 0.02 0.01 0.01 0.00 0.00 0.02 0.06 0.03 0.04 0.06 0.04 0.02 0.01 0.01 0.00 0.00 0.00 0.01 0.02 0.02 0.03 0.04 0.05 0.07 0.08 0.08 0.06 0.05 0.05 0.05 0.04 0.04 0.03 0.03 0.03 0.03 0.04 0.05 0.04 0.04 0.05
0.00 0.00 0.01 0.02 0.04 0.04 0.02 0.01 0.01 0.01 0.02 0.01 0.00 0.01 0.01 0.01 0.01 0.01 0.03 0.03 0.03 0.02 0.01 0.00 0.00 0.01 0.02 0.03 0.05 0.05 0.06 0.07 0.09 0.11 0.08 0.05 0.05 0.04 0.04 0.04 0.04 0.03 0.03 0.04 0.05 0.05 0.04 0.04 0.04
0.00 0.01 0.02 0.03 0.04 0.04 0.02 0.01 0.00 0.01 0.01 0.01 0.00 0.01 0.01 0.01 0.01 0.02 0.03 0.03 0.03 0.02 0.01 0.01 0.01 0.02 0.02 0.03 0.06 0.07 0.06 0.07 0.12 0.15 0.10 0.06 0.06 0.06 0.05 0.04 0.04 0.04 0.04 0.04 0.05 0.04 0.05 0.06 0.07
0.01 0.03 0.03 0.02 0.02 0.01 0.01 0.01 0.01 0.01 0.01 0.01 0.01 0.00 0.01 0.00 0.00 0.01 0.02 0.02 0.03 0.04 0.03 0.02 0.03 0.02 0.02 0.03 0.07 0.08 0.07 0.08 0.14 0.15 0.09 0.08 0.09 0.07 0.06 0.06 0.06 0.05 0.04 0.04 0.05 0.04 0.06 0.08 0.08
0.01 0.01 0.01 0.01 0.00 0.00 0.00 0.01 0.01 0.01 0.01 0.01 0.02 0.01 0.00 0.00 0.01 0.01 0.01 0.01 0.01 0.02 0.03 0.02 0.02 0.05 0.04 0.04 0.06 0.08 0.07 0.10 0.14 0.12 0.09 0.10 0.11 0.10 0.10 0.10 0.09 0.08 0.06 0.05 0.05 0.06 0.05 0.06 0.07
0.01 0.00 0.00 0.00 0.00 0.00 0.00 0.01 0.01 0.02 0.01 0.01 0.01 0.01 0.01 0.01 0.01 0.02 0.02 0.01 0.01 0.01 0.01 0.01 0.01 0.05 0.05 0.04 0.05 0.06 0.06 0.07 0.09 0.08 0.07 0.09 0.07 0.07 0.09 0.08 0.07 0.07 0.07 0.07 0.06 0.06 0.06 0.07 0.07
0.00 0.00 0.00 0.00 0.00 0.00 0.00 0.00 0.02 0.03 0.02 0.01 0.02 0.02 0.01 0.01 0.01 0.01 0.02 0.03 0.01 0.01 0.01 0.02 0.02 0.03 0.04 0.04 0.04 0.06 0.08 0.08 0.07 0.07 0.06 0.08 0.07 0.06 0.07 0.07 0.07 0.07 0.08 0.08 0.08 0.06 0.06 0.07 0.08
0.00 0.00 0.00 0.00 0.00 0.00 0.01 0.01 0.03 0.04 0.02 0.02 0.01 0.01 0.01 0.01 0.01 0.01 0.01 0.02 0.01 0.02 0.02 0.01 0.01 0.02 0.04 0.04 0.05 0.06 0.06 0.07 0.07 0.06 0.07 0.06 0.07 0.07 0.07 0.06 0.06 0.06 0.07 0.08 0.08 0.07 0.08 0.08 0.07
0.01 0.00 0.00 0.00 0.00 0.00 0.01 0.01 0.03 0.03 0.01 0.01 0.01 0.01 0.01 0.01 0.02 0.01 0.01 0.02 0.03 0.04 0.03 0.02 0.01 0.02 0.04 0.04 0.04 0.04 0.05 0.05 0.05 0.05 0.05 0.04 0.04 0.05 0.06 0.06 0.06 0.06 0.07 0.09 0.09 0.10 0.10 0.08 0.07
0.01 0.02 0.02 0.01 0.00 0.00 0.01 0.01 0.04 0.04 0.01 0.01 0.01 0.01 0.01 0.01 0.02 0.01 0.02 0.04 0.05 0.04 0.03 0.02 0.02 0.03 0.04 0.04 0.04 0.04 0.04 0.04 0.03 0.04 0.03 0.02 0.02 0.03 0.05 0.06 0.06 0.07 0.08 0.09 0.09 0.10 0.11 0.10 0.07
0.01 0.03 0.01 0.01 0.00 0.00 0.00 0.01 0.03 0.04 0.01 0.01 0.01 0.01 0.01 0.02 0.02 0.01 0.02 0.03 0.04 0.03 0.03 0.03 0.03 0.04 0.05 0.04 0.04 0.04 0.04 0.04 0.03 0.02 0.02 0.03 0.04 0.03 0.05 0.06 0.07 0.07 0.08 0.08 0.08 0.09 0.12 0.13 0.12
0.00 0.01 0.01 0.01 0.01 0.01 0.00 0.00 0.02 0.02 0.01 0.01 0.01 0.01 0.02 0.02 0.01 0.02 0.02 0.02 0.03 0.04 0.04 0.03 0.05 0.07 0.07 0.04 0.04 0.04 0.05 0.05 0.04 0.03 0.03 0.03 0.04 0.04 0.05 0.05 0.06 0.07 0.07 0.08 0.09 0.11 0.11 0.11 0.11
0.00 0.01 0.01 0.00 0.00 0.00 0.00 0.01 0.02 0.03 0.03 0.01 0.01 0.01 0.01 0.01 0.02 0.02 0.02 0.02 0.02 0.03 0.03 0.03 0.04 0.05 0.05 0.05 0.04 0.05 0.05 0.04 0.04 0.03 0.03 0.04 0.03 0.04 0.05 0.05 0.06 0.06 0.06 0.06 0.08 0.11 0.10 0.07 0.09
0.00 0.01 0.01 0.00 0.00 0.00 0.01 0.01 0.02 0.03 0.02 0.01 0.01 0.01 0.01 0.01 0.01 0.01 0.01 0.01 0.01 0.02 0.03 0.03 0.04 0.04 0.04 0.04 0.04 0.04 0.04 0.03 0.03 0.02 0.03 0.03 0.03 0.03 0.03 0.04 0.04 0.04 0.05 0.06 0.08 0.10 0.10 0.09 0.10
0.00 0.00 0.00 0.00 0.01 0.01 0.01 0.01 0.01 0.02 0.01 0.01 0.01 0.02 0.01 0.01 0.01 0.01 0.01 0.01 0.01 0.01 0.02 0.02 0.02 0.03 0.03 0.03 0.03 0.04 0.04 0.04 0.03 0.02 0.03 0.03 0.02 0.02 0.03 0.03 0.03 0.03 0.04 0.05 0.07 0.08 0.07 0.08 0.11
0.00 0.00 0.00 0.00 0.01 0.02 0.01 0.02 0.02 0.02 0.02 0.01 0.02 0.02 0.01 0.01 0.01 0.01 0.02 0.01 0.01 0.01 0.01 0.02 0.02 0.03 0.03 0.03 0.03 0.04 0.04 0.04 0.04 0.04 0.04 0.05 0.04 0.03 0.03 0.03 0.04 0.04 0.04 0.05 0.05 0.07 0.08 0.08 0.10
0.00 0.00 0.00 0.00 0.02 0.03 0.02 0.04 0.07 0.05 0.03 0.02 0.02 0.02 0.02 0.01 0.01 0.01 0.01 0.01 0.01 0.01 0.01 0.01 0.02 0.03 0.03 0.03 0.05 0.06 0.05 0.04 0.04 0.04 0.04 0.04 0.04 0.03 0.03 0.04 0.05 0.05 0.06 0.06 0.06 0.07 0.07 0.08 0.08
0.01 0.01 0.01 0.01 0.02 0.03 0.03 0.04 0.06 0.03 0.02 0.01 0.01 0.02 0.02 0.01 0.01 0.01 0.01 0.01 0.01 0.01 0.01 0.01 0.02 0.03 0.03 0.04 0.04 0.05 0.04 0.05 0.05 0.06 0.05 0.03 0.03 0.04 0.04 0.05 0.06 0.05 0.06 0.06 0.06 0.07 0.08 0.09 0.08
0.01 0.02 0.03 0.03 0.03 0.03 0.01 0.01 0.03 0.02 0.01 0.01 0.01 0.01 0.01 0.01 0.01 0.01 0.01 0.01 0.01 0.01 0.01 0.01 0.02 0.02 0.02 0.03 0.04 0.03 0.04 0.05 0.06 0.07 0.06 0.05 0.05 0.05 0.05 0.06 0.06 0.05 0.05 0.05 0.07 0.07 0.06 0.07 0.08
0.00 0.01 0.03 0.05 0.04 0.03 0.02 0.02 0.02 0.02 0.01 0.01 0.01 0.00 0.01 0.01 0.00 0.00 0.00 0.01 0.01 0.01 0.01 0.01 0.02 0.02 0.02 0.02 0.03 0.03 0.04 0.04 0.04 0.06 0.06 0.07 0.06 0.06 0.07 0.07 0.06 0.04 0.04 0.05 0.06 0.07 0.07 0.07 0.08
0.01 0.01 0.01 0.02 0.02 0.03 0.03 0.03 0.02 0.01 0.01 0.01 0.00 0.00 0.00 0.00 0.00 0.00 0.01 0.01 0.01 0.03 0.04 0.02 0.02 0.03 0.02 0.02 0.03 0.03 0.03 0.04 0.05 0.06 0.07 0.07 0.08 0.07 0.05 0.06 0.07 0.06 0.05 0.07 0.07 0.07 0.07 0.08 0.09
0.00 0.01 0.01 0.01 0.02 0.04 0.04 0.04 0.03 0.02 0.01 0.01 0.00 0.00 0.00 0.00 0.00 0.01 0.01 0.01 0.01 0.02 0.03 0.03 0.03 0.03 0.03 0.03 0.03 0.03 0.04 0.05 0.05 0.06 0.06 0.06 0.07 0.05 0.05 0.08 0.09 0.07 0.07 0.08 0.09 0.10 0.10 0.11 0.10
0.01 0.01 0.01 0.01 0.02 0.03 0.04 0.06 0.05 0.02 0.02 0.02 0.02 0.01 0.00 0.00 0.00 0.01 0.01 0.01 0.01 0.02 0.04 0.04 0.04 0.03 0.03 0.03 0.04 0.05 0.05 0.05 0.05 0.04 0.04 0.05 0.05 0.04 0.07 0.09 0.09 0.08 0.07 0.08 0.08 0.07 0.09 0.09 0.08
0.00 0.01 0.01 0.03 0.03 0.02 0.04 0.05 0.03 0.03 0.03 0.03 0.02 0.02 0.01 0.00 0.01 0.01 0.01 0.01 0.01 0.02 0.06 0.10 0.07 0.05 0.05 0.04 0.04 0.04 0.05 0.05 0.05 0.04 0.04 0.04 0.04 0.04 0.06 0.07 0.07 0.07 0.06 0.07 0.07 0.07 0.08 0.10 0.09
MSLP
1007.52 1007.99 1008.39 1008.60 1008.52 1008.12 1007.44 1006.59 1005.75 1005.07 1004.68 1004.65 1004.95 1005.51 1006.18 1006.82 1007.32 1007.62 1007.72 1007.69 1007.62 1007.60 1007.71 1007.95 1008.30 1008.69 1009.03 1009.27 1009.37 1009.37 1009.31 1009.29 1009.38 1009.63 1010.07 1010.64 1011.28 1011.92 1012.46 1012.87 1013.14 1013.30 1013.40 1013.50 1013.65 1013.87 1014.16 1014.48 1014.80
1007.65 1008.12 1008.45 1008.53 1008.28 1007.70 1006.86 1005.89 1004.97 1004.26 1003.88 1003.88 1004.23 1004.83 1005.54 1006.22 1006.75 1007.09 1007.26 1007.31 1007.34 1007.44 1007.66 1008.01 1008.44 1008.89 1009.25 1009.48 1009.55 1009.50 1009.39 1009.32 1009.37 1009.60 1010.02 1010.60 1011.25 1011.89 1012.44 1012.85 1013.12 1013.27 1013.37 1013.48 1013.64 1013.87 1014.18 1014.51 1014.84
1007.87 1008.29 1008.53 1008.46 1008.05 1007.31 1006.35 1005.30 1004.33 1003.62 1003.26 1003.29 1003.66 1004.27 1004.98 1005.64 1006.18 1006.53 1006.73 1006.84 1006.96 1007.17 1007.50 1007.95 1008.48 1008.99 1009.40 1009.65 1009.73 1009.66 1009.53 1009.43 1009.45 1009.64 1010.03 1010.56 1011.18 1011.79 1012.32 1012.72 1012.99 1013.17 1013.30 1013.44 1013.64 1013.91 1014.25 1014.61 1014.95
1008.12 1008.48 1008.60 1008.39 1007.84 1006.99 1005.94 1004.86 1003.89 1003.20 1002.87 1002.92 1003.29 1003.87 1004.54 1005.16 1005.66 1006.01 1006.23 1006.39 1006.58 1006.87 1007.30 1007.85 1008.45 1009.03 1009.49 1009.78 1009.88 1009.84 1009.71 1009.61 1009.61 1009.76 1010.10 1010.57 1011.12 1011.67 1012.17 1012.56 1012.84 1013.05 1013.24 1013.45 1013.71 1014.04 1014.41 1014.79 1015.14
1008.35 1008.62 1008.62 1008.29 1007.63 1006.71 1005.64 1004.57 1003.64 1003.00 1002.70 1002.76 1003.10 1003.64 1004.24 1004.80 1005.26 1005.58 1005.81 1006.02 1006.27 1006.64 1007.14 1007.75 1008.41 1009.03 1009.53 1009.85 1010.00 1009.99 1009.90 1009.81 1009.81 1009.95 1010.23 1010.63 1011.11 1011.60 1012.05 1012.42 1012.73 1012.99 1013.25 1013.53 1013.87 1014.25 1014.66 1015.05 1015.38
1008.47 1008.64 1008.52 1008.10 1007.38 1006.44 1005.40 1004.39 1003.54 1002.96 1002.70 1002.76 1003.06 1003.53 1004.06 1004.56 1004.97 1005.28 1005.53 1005.78 1006.10 1006.52 1007.06 1007.70 1008.37 1009.00 1009.51 1009.86 1010.04 1010.08 1010.05 1010.00 1010.02 1010.15 1010.40 1010.74 1011.15 1011.57 1011.98 1012.34 1012.67 1012.98 1013.31 1013.67 1014.07 1014.50 1014.93 1015.31 1015.62
1008.43 1008.47 1008.25 1007.75 1007.02 1006.12 1005.16 1004.25 1003.50 1003.00 1002.78 1002.83 1003.09 1003.49 1003.94 1004.38 1004.76 1005.08 1005.38 1005.68 1006.05 1006.52 1007.08 1007.71 1008.35 1008.95 1009.44 1009.79 1009.99 1010.09 1010.11 1010.12 1010.19 1010.33 1010.56 1010.87 1011.22 1011.59 1011.95 1012.30 1012.64 1013.00 1013.38 1013.81 1014.26 1014.72 1015.14 1015.50 1015.76
1008.17 1008.09 1007.77 1007.24 1006.53 1005.70 1004.86 1004.09 1003.46 1003.05 1002.86 1002.89 1003.10 1003.43 1003.81 1004.21 1004.59 1004.94 1005.30 1005.68 1006.11 1006.61 1007.17 1007.76 1008.35 1008.88 1009.31 1009.63 1009.85 1009.98 1010.06 1010.15 1010.27 1010.45 1010.69 1010.97 1011.29 1011.61 1011.93 1012.26 1012.61 1013.00 1013.42 1013.88 1014.37 1014.83 1015.24 1015.55 1015.75
1007.72 1007.51 1007.12 1006.57 1005.91 1005.20 1004.50 1003.87 1003.38 1003.04 1002.89 1002.90 1003.05 1003.31 1003.64 1004.00 1004.40 1004.81 1005.24 1005.71 1006.21 1006.74 1007.29 1007.84 1008.35 1008.79 1009.15 1009.42 1009.63 1009.79 1009.93 1010.09 1010.28 1010.50 1010.76 1011.03 1011.32 1011.60 1011.89 1012.20 1012.54 1012.93 1013.38 1013.86 1014.35 1014.80 1015.18 1015.45 1015.60
1007.11 1006.79 1006.35 1005.81 1005.23 1004.65 1004.10 1003.63 1003.26 1003.00 1002.87 1002.84 1002.93 1003.12 1003.39 1003.74 1004.16 1004.64 1005.16 1005.72 1006.29 1006.87 1007.41 1007.91 1008.34 1008.70 1008.98 1009.20 1009.39 1009.57 1009.75 1009.97 1010.22 1010.49 1010.76 1011.04 1011.30 1011.55 1011.81 1012.09 1012.41 1012.80 1013.24 1013.73 1014.21 1014.65 1015.01 1015.24 1015.35
1006.46 1006.05 1005.57 1005.07 1004.58 1004.13 1003.74 1003.42 1003.16 1002.97 1002.84 1002.77 1002.79 1002.90 1003.12 1003.45 1003.88 1004.42 1005.03 1005.68 1006.33 1006.95 1007.51 1007.97 1008.35 1008.63 1008.85 1009.02 1009.19 1009.37 1009.59 1009.85 1010.14 1010.44 1010.73 1011.00 1011.24 1011.46 1011.69 1011.94 1012.24 1012.61 1013.05 1013.53 1014.01 1014.44 1014.78 1015.00 1015.09
1005.86 1005.39 1004.90 1004.45 1004.05 1003.74 1003.50 1003.31 1003.15 1003.00 1002.87 1002.76 1002.70 1002.73 1002.87 1003.16 1003.60 1004.18 1004.85 1005.57 1006.30 1006.97 1007.55 1008.01 1008.36 1008.60 1008.78 1008.93 1009.08 1009.26 1009.50 1009.78 1010.08 1010.40 1010.69 1010.95 1011.16 1011.36 1011.55 1011.77 1012.05 1012.41 1012.84 1013.31 1013.79 1014.24 1014.59 1014.82 1014.92
1005.42 1004.91 1004.43 1004.03 1003.73 1003.54 1003.43 1003.36 1003.28 1003.16 1003.02 1002.85 1002.72 1002.66 1002.73 1002.96 1003.38 1003.95 1004.66 1005.43 1006.20 1006.92 1007.54 1008.02 1008.38 1008.62 1008.79 1008.94 1009.09 1009.27 1009.51 1009.78 1010.08 1010.38 1010.66 1010.89 1011.08 1011.25 1011.42 1011.62 1011.88 1012.23 1012.65 1013.13 1013.63 1014.10 1014.49 1014.77 1014.91
1005.19 1004.67 1004.21 1003.87 1003.66 1003.57 1003.56 1003.58 1003.56 1003.48 1003.32 1003.11 1002.91 1002.77 1002.75 1002.91 1003.26 1003.80 1004.49 1005.26 1006.06 1006.81 1007.46 1007.99 1008.38 1008.66 1008.87 1009.03 1009.20 1009.39 1009.61 1009.86 1010.14 1010.40 1010.64 1010.84 1011.00 1011.15 1011.30 1011.49 1011.75 1012.09 1012.52 1013.02 1013.55 1014.06 1014.51 1014.86 1015.07
1005.17 1004.66 1004.23 1003.93 1003.79 1003.79 1003.86 1003.94 1003.98 1003.92 1003.76 1003.52 1003.26 1003.05 1002.95 1003.02 1003.29 1003.76 1004.39 1005.12 1005.89 1006.64 1007.32 1007.89 1008.34 1008.68 1008.94 1009.15 1009.35 1009.54 1009.75 1009.97 1010.20 1010.42 1010.61 1010.77 1010.91 1011.04 1011.18 1011.37 1011.64 1011.99 1012.43 1012.95 1013.51 1014.08 1014.61 1015.04 1015.35
1005.29 1004.80 1004.41 1004.16 1004.07 1004.12 1004.24 1004.37 1004.45 1004.41 1004.27 1004.02 1003.74 1003.48 1003.32 1003.30 1003.47 1003.84 1004.36 1005.01 1005.72 1006.43 1007.11 1007.71 1008.21 1008.62 1008.95 1009.22 1009.45 1009.66 1009.86 1010.05 1010.23 1010.39 1010.53 1010.66 1010.78 1010.90 1011.05 1011.25 1011.52 1011.88 1012.34 1012.88 1013.48 1014.10 1014.71 1015.24 1015.66
1005.48 1005.02 1004.66 1004.45 1004.40 1004.48 1004.63 1004.79 1004.89 1004.88 1004.75 1004.53 1004.25 1003.98 1003.78 1003.70 1003.77 1004.02 1004.42 1004.95 1005.55 1006.20 1006.83 1007.43 1007.97 1008.44 1008.84 1009.17 1009.45 1009.68 1009.86 1010.02 1010.16 1010.27 1010.38 1010.48 1010.59 1010.72 1010.88 1011.09 1011.38 1011.75 1012.21 1012.76 1013.38 1014.05 1014.72 1015.35 1015.88
1005.64 1005.24 1004.92 1004.75 1004.72 1004.80 1004.96 1005.11 1005.22 1005.23 1005.14 1004.95 1004.71 1004.46 1004.25 1004.14 1004.14 1004.28 1004.55 1004.94 1005.41 1005.95 1006.51 1007.08 1007.62 1008.13 1008.58 1008.97 1009.28 1009.54 1009.73 1009.87 1009.97 1010.05 1010.13 1010.22 1010.33 1010.47 1010.65 1010.88 1011.18 1011.55 1012.00 1012.55 1013.18 1013.87 1014.59 1015.29 1015.92
1005.72 1005.39 1005.13 1005.00 1004.98 1005.06 1005.20 1005.33 1005.42 1005.44 1005.37 1005.23 1005.04 1004.85 1004.68 1004.56 1004.52 1004.58 1004.74 1004.99 1005.32 1005.72 1006.19 1006.69 1007.21 1007.72 1008.19 1008.62 1008.97 1009.24 1009.45 1009.58 1009.67 1009.74 1009.80 1009.89 1010.01 1010.17 1010.37 1010.62 1010.92 1011.28 1011.72 1012.24 1012.84 1013.53 1014.26 1015.01 1015.72
1005.70 1005.46 1005.30 1005.22 1005.22 1005.29 1005.37 1005.46 1005.50 1005.50 1005.44 1005.34 1005.22 1005.09 1004.98 1004.91 1004.87 1004.89 1004.96 1005.09 1005.30 1005.57 1005.92 1006.33 1006.78 1007.27 1007.74 1008.18 1008.56 1008.85 1009.06 1009.20 1009.29 1009.36 1009.43 1009.53 1009.66 1009.84 1010.06 1010.32 1010.62 1010.97 1011.37 1011.85 1012.41 1013.05 1013.78 1014.54 1015.30
1005.60 1005.51 1005.46 1005.46 1005.49 1005.53 1005.56 1005.57 1005.54 1005.47 1005.39 1005.31 1005.24 1005.19 1005.16 1005.16 1005.16 1005.18 1005.22 1005.28 1005.37 1005.53 1005.76 1006.06 1006.44 1006.86 1007.31 1007.74 1008.11 1008.42 1008.64 1008.79 1008.89 1008.97 1009.05 1009.16 1009.31 1009.51 1009.75 1010.02 1010.31 1010.64 1011.00 1011.42 1011.92 1012.51 1013.18 1013.92 1014.69
1005.51 1005.59 1005.69 1005.79 1005.86 1005.88 1005.84 1005.75 1005.60 1005.45 1005.30 1005.20 1005.15 1005.16 1005.22 1005.31 1005.39 1005.46 1005.50 1005.53 1005.57 1005.63 1005.76 1005.95 1006.23 1006.58 1006.97 1007.36 1007.72 1008.02 1008.24 1008.40 1008.51 1008.60 1008.69 1008.81 1008.98 1009.20 1009.45 1009.73 1010.02 1010.32 1010.65 1011.01 1011.44 1011.95 1012.55 1013.23 1013.97
1005.50 1005.77 1006.03 1006.24 1006.37 1006.38 1006.27 1006.06 1005.78 1005.49 1005.25 1005.09 1005.03 1005.08 1005.21 1005.39 1005.57 1005.72 1005.82 1005.86 1005.87 1005.88 1005.92 1006.02 1006.19 1006.45 1006.75 1007.08 1007.40 1007.67 1007.89 1008.05 1008.16 1008.25 1008.36 1008.49 1008.67 1008.90 1009.16 1009.44 1009.74 1010.03 1010.32 1010.64 1011.00 1011.43 1011.95 1012.55 1013.23
1005.61 1006.07 1006.50 1006.83 1007.01 1007.01 1006.84 1006.51 1006.09 1005.66 1005.29 1005.04 1004.94 1005.00 1005.18 1005.44 1005.72 1005.97 1006.14 1006.24 1006.26 1006.23 1006.21 1006.22 1006.29 1006.44 1006.65 1006.89 1007.14 1007.38 1007.57 1007.71 1007.82 1007.91 1008.01 1008.15 1008.34 1008.57 1008.85 1009.14 1009.45 1009.74 1010.03 1010.32 1010.63 1010.99 1011.42 1011.93 1012.52
1005.84 1006.47 1007.04 1007.48 1007.72 1007.73 1007.50 1007.07 1006.52 1005.95 1005.45 1005.10 1004.93 1004.96 1005.17 1005.49 1005.86 1006.20 1006.46 1006.62 1006.67 1006.63 1006.56 1006.49 1006.45 1006.48 1006.58 1006.72 1006.90 1007.07 1007.22 1007.33 1007.43 1007.51 1007.61 1007.75 1007.94 1008.18 1008.47 1008.79 1009.12 1009.43 1009.73 1010.02 1010.31 1010.62 1010.97 1011.39 1011.88
1006.16 1006.90 1007.58 1008.10 1008.38 1008.40 1008.13 1007.64 1007.00 1006.31 1005.70 1005.25 1005.01 1005.00 1005.21 1005.57 1006.00 1006.41 1006.75 1006.96 1007.03 1006.99 1006.87 1006.72 1006.58 1006.49 1006.46 1006.50 1006.57 1006.67 1006.76 1006.85 1006.93 1007.01 1007.10 1007.24 1007.44 1007.69 1008.00 1008.35 1008.71 1009.07 1009.40 1009.71 1010.00 1010.29 1010.59 1010.93 1011.32
1006.49 1007.26 1007.98 1008.54 1008.86 1008.89 1008.62 1008.10 1007.42 1006.67 1005.99 1005.46 1005.17 1005.13 1005.32 1005.68 1006.14 1006.59 1006.97 1007.21 1007.30 1007.24 1007.06 1006.83 1006.58 1006.36 1006.20 1006.12 1006.09 1006.11 1006.16 1006.21 1006.28 1006.35 1006.46 1006.61 1006.81 1007.09 1007.42 1007.80 1008.21 1008.62 1009.01 1009.37 1009.69 1009.98 1010.25 1010.54 1010.85
1006.73 1007.46 1008.16 1008.71 1009.04 1009.08 1008.85 1008.35 1007.68 1006.95 1006.25 1005.71 1005.39 1005.32 1005.48 1005.83 1006.28 1006.74 1007.12 1007.35 1007.42 1007.31 1007.07 1006.74 1006.37 1006.03 1005.75 1005.54 1005.42 1005.37 1005.37 1005.41 1005.48 1005.57 1005.69 1005.87 1006.10 1006.40 1006.76 1007.19 1007.64 1008.11 1008.56 1008.98 1009.34 1009.66 1009.93 1010.19 1010.46
1006.82 1007.44 1008.04 1008.53 1008.85 1008.92 1008.74 1008.32 1007.74 1007.08 1006.45 1005.94 1005.63 1005.56 1005.70 1006.01 1006.43 1006.85 1007.18 1007.37 1007.38 1007.20 1006.87 1006.43 1005.94 1005.48 1005.07 1004.77 1004.56 1004.46 1004.44 1004.48 1004.57 1004.70 1004.86 1005.08 1005.35 1005.69 1006.09 1006.55 1007.05 1007.57 1008.07 1008.54 1008.96 1009.32 1009.61 1009.87 1010.12
1006.74 1007.19 1007.64 1008.05 1008.33 1008.43 1008.33 1008.03 1007.58 1007.06 1006.55 1006.14 1005.88 1005.83 1005.96 1006.23 1006.58 1006.93 1007.18 1007.29 1007.20 1006.93 1006.49 1005.94 1005.34 1004.76 1004.26 1003.86 1003.60 1003.47 1003.44 1003.51 1003.64 1003.83 1004.06 1004.34 1004.66 1005.03 1005.47 1005.96 1006.49 1007.05 1007.59 1008.10 1008.56 1008.95 1009.28 1009.56 1009.81
Thickness
5828 5831 5832 5827 5811 5803 5808 5828 5839 5838 5839 5848 5848 5841 5829 5818 5807 5792 5822 5833 5829 5821 5813 5806 5802 5798 5794 5790 5787 5784 5781 5778 5774 5772 5769 5767 5764 5762 5760 5759 5757 5755 5754 5752 5750 5749 5747 5746 5745
5833 5838 5832 5821 5802 5792 5811 5834 5832 5835 5844 5850 5846 5840 5829 5820 5824 5821 5824 5829 5827 5820 5812 5805 5799 5795 5791 5787 5784 5781 5778 5775 5771 5768 5766 5764 5762 5760 5758 5756 5754 5752 5751 5749 5748 5747 5745 5744 5743
5833 5839 5824 5816 5807 5804 5816 5836 5836 5844 5851 5846 5836 5834 5824 5814 5821 5820 5824 5829 5825 5818 5809 5800 5795 5792 5788 5784 5781 5778 5775 5772 5768 5766 5764 5761 5759 5757 5755 5753 5752 5750 5748 5747 5746 5744 5743 5741 5740
5834 5833 5824 5813 5810 5830 5836 5840 5844 5843 5844 5844 5835 5821 5820 5824 5822 5823 5826 5827 5821 5813 5805 5796 5792 5788 5785 5782 5778 5775 5772 5769 5766 5763 5761 5759 5757 5755 5753 5751 5749 5748 5746 5744 5743 5742 5740 5739 5738
5835 5824 5811 5807 5820 5841 5849 5850 5849 5840 5836 5838 5832 5813 5807 5821 5827 5825 5823 5822 5816 5810 5802 5793 5789 5785 5782 5779 5776 5772 5769 5766 5763 5761 5758 5756 5754 5752 5750 5748 5747 5745 5743 5742 5740 5739 5738 5737 5736
5826 5824 5802 5802 5820 5841 5848 5850 5845 5837 5836 5836 5828 5812 5802 5817 5819 5819 5820 5818 5814 5806 5799 5791 5786 5782 5779 5776 5773 5769 5766 5763 5761 5758 5756 5754 5752 5750 5748 5746 5744 5742 5741 5740 5738 5737 5736 5736 5735
5819 5814 5803 5810 5822 5831 5841 5850 5839 5836 5829 5828 5831 5810 5802 5811 5816 5818 5816 5815 5811 5804 5796 5790 5784 5779 5775 5773 5769 5766 5763 5760 5758 5755 5753 5751 5750 5748 5746 5744 5742 5740 5739 5737 5736 5735 5735 5734 5733
5836 5819 5807 5814 5817 5823 5841 5845 5843 5835 5824 5835 5831 5808 5798 5807 5815 5815 5811 5808 5805 5800 5794 5788 5783 5777 5773 5770 5766 5763 5760 5757 5755 5753 5751 5749 5747 5745 5744 5742 5740 5738 5737 5735 5734 5733 5732 5732 5731
5842 5812 5801 5812 5819 5826 5840 5836 5838 5842 5828 5824 5826 5817 5813 5815 5813 5807 5803 5800 5796 5793 5790 5785 5781 5776 5773 5769 5765 5760 5757 5754 5752 5750 5748 5747 5746 5744 5742 5741 5738 5736 5734 5733 5732 5731 5730 5730 5729
5832 5807 5812 5829 5835 5832 5837 5834 5833 5826 5817 5813 5813 5815 5815 5812 5807 5799 5794 5790 5787 5785 5784 5783 5778 5774 5771 5767 5761 5758 5756 5752 5750 5749 5746 5745 5744 5743 5742 5739 5737 5734 5732 5731 5730 5729 5728 5727 5727
5831 5817 5826 5834 5840 5837 5833 5832 5836 5820 5806 5808 5804 5805 5806 5804 5800 5795 5791 5788 5784 5783 5780 5778 5774 5770 5767 5763 5758 5756 5754 5750 5747 5746 5744 5742 5741 5740 5739 5736 5733 5731 5730 5728 5728 5726 5726 5726 5727
5829 5830 5835 5834 5839 5834 5830 5828 5824 5817 5811 5819 5814 5809 5802 5797 5793 5790 5786 5784 5782 5779 5776 5774 5771 5766 5762 5759 5755 5753 5751 5747 5745 5742 5741 5739 5738 5737 5735 5732 5731 5729 5728 5726 5726 5725 5725 5725 5725
5829 5832 5837 5839 5838 5836 5832 5822 5817 5813 5819 5819 5814 5806 5799 5794 5791 5789 5786 5782 5778 5773 5771 5769 5766 5761 5758 5754 5752 5749 5745 5742 5741 5740 5737 5735 5733 5732 5731 5728 5727 5726 5725 5724 5722 5722 5722 5722 5722
5831 5833 5833 5836 5834 5833 5823 5818 5814 5810 5817 5811 5805 5799 5796 5792 5788 5784 5780 5775 5771 5768 5766 5764 5761 5758 5754 5750 5748 5746 5743 5740 5738 5736 5733 5730 5729 5728 5726 5725 5724 5723 5722 5721 5719 5719 5719 5719 5719
5833 5822 5822 5829 5832 5832 5823 5804 5806 5812 5811 5803 5799 5795 5792 5789 5786 5780 5776 5771 5767 5764 5761 5758 5757 5754 5749 5746 5743 5742 5740 5737 5735 5732 5730 5727 5725 5724 5722 5721 5720 5719 5719 5718 5716 5715 5714 5714 5715
5820 5810 5803 5821 5828 5828 5811 5788 5803 5811 5803 5796 5795 5791 5786 5783 5781 5778 5774 5768 5765 5760 5756 5754 5753 5748 5745 5741 5738 5737 5735 5733 5731 5729 5727 5724 5721 5720 5718 5717 5715 5715 5715 5714 5712 5711 5709 5709 5709
5806 5796 5802 5815 5827 5823 5810 5793 5800 5806 5798 5790 5789 5786 5781 5778 5775 5773 5770 5765 5760 5755 5751 5748 5746 5743 5739 5736 5733 5731 5730 5728 5726 5724 5722 5720 5718 5716 5714 5712 5711 5711 5710 5709 5708 5706 5704 5703 5703
5792 5798 5803 5808 5819 5816 5803 5796 5798 5798 5795 5789 5784 5782 5777 5771 5769 5768 5765 5761 5756 5752 5748 5745 5742 5739 5735 5732 5728 5726 5725 5723 5721 5719 5717 5715 5713 5712 5709 5708 5706 5706 5705 5704 5703 5700 5700 5698 5698
5806 5802 5801 5811 5821 5811 5799 5793 5794 5795 5789 5784 5779 5776 5772 5768 5768 5765 5761 5757 5752 5747 5743 5740 5736 5733 5730 5725 5721 5718 5717 5716 5715 5714 5712 5711 5709 5707 5705 5703 5702 5701 5700 5699 5698 5696 5694 5693 5694
5805 5797 5799 5810 5820 5807 5793 5790 5796 5793 5787 5782 5777 5772 5770 5766 5762 5758 5755 5751 5746 5742 5738 5735 5731 5727 5724 5721 5717 5714 5712 5711 5711 5709 5708 5706 5704 5702 5702 5699 5698 5697 5696 5695 5693 5691 5688 5688 5688
5800 5798 5797 5798 5806 5805 5791 5780 5784 5784 5787 5780 5775 5771 5769 5764 5757 5753 5749 5746 5743 5738 5735 5731 5726 5722 5719 5717 5714 5710 5707 5705 5704 5702 5701 5701 5700 5698 5696 5695 5694 5693 5692 5690 5689 5687 5684 5682 5684
5790 5809 5806 5799 5786 5780 5787 5762 5771 5774 5772 5770 5768 5768 5765 5763 5757 5751 5747 5742 5739 5736 5733 5728 5723 5719 5715 5712 5708 5703 5698 5695 5696 5696 5696 5695 5695 5694 5692 5691 5690 5689 5688 5687 5686 5685 5682 5679 5677
5799 5812 5806 5799 5787 5778 5782 5765 5762 5772 5761 5762 5764 5764 5761 5759 5755 5749 5744 5741 5737 5734 5729 5724 5719 5714 5710 5707 5703 5699 5695 5693 5692 5692 5691 5690 5690 5689 5688 5687 5686 5685 5684 5683 5682 5680 5679 5676 5674
5808 5803 5799 5797 5785 5760 5772 5762 5754 5765 5761 5761 5762 5761 5759 5757 5753 5748 5743 5739 5733 5729 5724 5719 5714 5709 5705 5701 5699 5695 5691 5688 5686 5685 5684 5684 5684 5684 5683 5683 5682 5681 5680 5679 5678 5676 5674 5673 5671
5799 5780 5764 5761 5759 5761 5783 5770 5757 5768 5772 5768 5763 5761 5759 5756 5751 5744 5739 5733 5728 5724 5719 5715 5709 5704 5700 5697 5694 5691 5688 5685 5682 5681 5679 5679 5678 5677 5677 5677 5676 5676 5675 5674 5673 5672 5670 5669 5667
5791 5782 5756 5740 5745 5762 5776 5760 5760 5773 5772 5772 5769 5764 5758 5753 5748 5742 5737 5731 5726 5721 5716 5711 5705 5700 5696 5692 5689 5687 5684 5681 5679 5677 5676 5674 5673 5673 5673 5672 5672 5671 5670 5670 5669 5667 5666 5665 5663
5784 5783 5790 5767 5761 5756 5759 5754 5757 5768 5764 5763 5761 5757 5752 5748 5744 5739 5734 5729 5724 5719 5713 5708 5702 5696 5693 5689 5686 5683 5680 5678 5675 5674 5672 5670 5669 5669 5668 5667 5666 5666 5664 5664 5663 5662 5661 5660 5659
5798 5792 5778 5761 5742 5734 5746 5747 5739 5745 5748 5751 5750 5747 5744 5743 5739 5735 5730 5726 5722 5717 5711 5706 5700 5694 5690 5686 5682 5680 5676 5674 5672 5669 5667 5665 5664 5663 5663 5662 5661 5660 5659 5659 5658 5657 5656 5655 5654
5786 5781 5774 5768 5762 5737 5727 5734 5755 5746 5746 5743 5743 5741 5739 5735 5732 5730 5726 5722 5717 5712 5707 5700 5694 5690 5686 5683 5679 5675 5672 5670 5667 5664 5663 5661 5660 5659 5657 5656 5655 5654 5653 5653 5651 5650 5649 5648 5647
5788 5778 5769 5747 5743 5749 5738 5732 5758 5753 5748 5742 5736 5735 5734 5730 5727 5725 5721 5717 5712 5706 5700 5694 5689 5686 5683 5680 5676 5672 5668 5665 5663 5660 5658 5657 5655 5654 5652 5651 5649 5648 5648 5648 5645 5644 5643 5642 5642